Location: Владивосток
(43.1151°N, 131.8856°E)
Time: 19:57:11
(UTC+10:00)

ITAMSAT 1 - Visible Passes

Search period start: 30 June 2022 00:00
Search period end: 10 July 2022 00:00
Orbit: 783 x 796 km, 98.9° (Epoch: 29 June)

Date Brightness Start Highest point End Pass type
(mag) Time Alt. Az. Time Alt. Az. Time Alt. Az.
30 Jun 10.3 21:35:54 10° SW 21:39:01 16° W 21:42:11 10° NW visible
03 Jul 10.4 21:47:43 10° WSW 21:49:58 13° W 21:52:12 10° WNW visible
07 Jul 10.2 21:27:17 10° SW 21:30:59 20° W 21:34:41 10° NW visible
